User: anonymous   Login
Location: Stoke Bliss
(52.2667°N, 2.5167°W)
Time: 23:45:29
(UTC+00:00)
Language:

ARGOS - Orbit

View from above orbital plane
View from above orbital plane
View from above satellite
View from above satellite

Ground track
Ground track

The orbit data is extracted from the following two-line orbital elements,

1 25634U 99008A   21129.56541295 -.00000016  00000-0  11999-4 0  9999
2 25634  98.4222 159.1587 0011168  56.4565 303.7678 14.19394098149740
Epoch (UTC): 09 May 2021 13:34:11
Eccentricity: 0.0011168
inclination: 98.4222°
perigee height: 819 km
apogee height: 835 km
right ascension of ascending node: 159.1587°
argument of perigee: 56.4565°
revolutions per day: 14.19394098
mean anomaly at epoch: 303.7678°
orbit number at epoch: 14974

The dashed part of the orbit path shows where the satellite is in the earth's shadow,  

DLR